• In Deutschland
  • Länderverzeichnis
  • Für 7 Tage
  • Wassertemperatur
  • Satellitenkarten
  • Wetterkarte
  • Widgets
  • user-avatar
    Anmelden

    Stündliche Wetter Coswig

    Heute, 17 August, Freitag

    Zeit Temperatur Niederschläge Wind Luftdruck Luftfeuchtigkeit
    00:00 +21°C° 0 mm 2 m/S 751 mmHg 63%
    01:00 +21°C° 0 mm 2 m/S 750 mmHg 64%
    02:00 +20°C° 0 mm 2 m/S 750 mmHg 65%
    03:00 +20°C° 0 mm 2 m/S 750 mmHg 66%
    04:00 +20°C° 0 mm 2 m/S 750 mmHg 67%
    05:00 +21°C° 0 mm 2 m/S 750 mmHg 66%
    06:00 +21°C° 0 mm 2 m/S 750 mmHg 65%
    07:00 +24°C° 0 mm 2 m/S 750 mmHg 62%
    08:00 +25°C° 0 mm 2 m/S 751 mmHg 57%
    09:00 +27°C° 0 mm 2 m/S 751 mmHg 52%
    10:00 +29°C° 0 mm 2 m/S 751 mmHg 47%
    11:00 +30°C° 0 mm 2 m/S 751 mmHg 44%
    12:00 +31°C° 0 mm 2 m/S 750 mmHg 41%
    13:00 +32°C° 0 mm 2 m/S 750 mmHg 38%
    14:00 +32°C° 0 mm 1 m/S 750 mmHg 39%
    15:00 +32°C° 0 mm 1 m/S 750 mmHg 40%
    16:00 +31°C° 0 mm 1 m/S 750 mmHg 40%
    17:00 +30°C° 0 mm 1 m/S 750 mmHg 45%
    18:00 +29°C° 0 mm 1 m/S 750 mmHg 49%
    19:00 +27°C° 0 mm 1 m/S 750 mmHg 54%
    20:00 +26°C° 0,3 mm 2 m/S 751 mmHg 60%
    21:00 +25°C° 0,3 mm 2 m/S 751 mmHg 66%
    22:00 +22°C° 0,3 mm 3 m/S 752 mmHg 72%
    23:00 +23°C° 0,8 mm 2 m/S 752 mmHg 78%

    Morgen, 18 August, Samstag

    Zeit Temperatur Niederschläge Wind Luftdruck Luftfeuchtigkeit
    00:00 +21°C° 0,8 mm 2 m/S 753 mmHg 85%
    01:00 +20°C° 0,8 mm 2 m/S 753 mmHg 92%
    02:00 +20°C° 0,1 mm 2 m/S 753 mmHg 92%
    03:00 +20°C° 0,1 mm 1 m/S 753 mmHg 93%
    04:00 +20°C° 0,1 mm 1 m/S 753 mmHg 93%
    05:00 +21°C° 0 mm 1 m/S 753 mmHg 91%
    06:00 +20°C° 0 mm 2 m/S 754 mmHg 89%
    07:00 +20°C° 0 mm 2 m/S 754 mmHg 87%
    08:00 +21°C° 0,1 mm 2 m/S 754 mmHg 81%
    09:00 +23°C° 0,1 mm 2 m/S 755 mmHg 75%
    10:00 +25°C° 0,1 mm 2 m/S 755 mmHg 68%
    11:00 +26°C° 0,5 mm 2 m/S 755 mmHg 64%
    12:00 +26°C° 0,5 mm 2 m/S 755 mmHg 61%
    13:00 +27°C° 0,5 mm 2 m/S 755 mmHg 57%
    14:00 +28°C° 0,1 mm 2 m/S 754 mmHg 56%
    15:00 +28°C° 0,1 mm 2 m/S 754 mmHg 54%
    16:00 +28°C° 0,1 mm 2 m/S 754 mmHg 53%
    17:00 +27°C° 0,1 mm 1 m/S 754 mmHg 58%
    18:00 +26°C° 0,1 mm 1 m/S 754 mmHg 62%
    19:00 +24°C° 0,1 mm 1 m/S 754 mmHg 67%
    20:00 +23°C° 0 mm 1 m/S 754 mmHg 68%
    21:00 +22°C° 0 mm 1 m/S 755 mmHg 70%
    22:00 +21°C° 0 mm 1 m/S 755 mmHg 72%
    23:00 +21°C° 0 mm 1 m/S 755 mmHg 73%

    übermorgen, 19 August, Sonntag

    Zeit Temperatur Niederschläge Wind Luftdruck Luftfeuchtigkeit
    00:00 +21°C° 0 mm 1 m/S 755 mmHg 73%
    01:00 +18°C° 0 mm 0 m/S 755 mmHg 74%
    02:00 +18°C° 0 mm 0 m/S 755 mmHg 74%
    03:00 +18°C° 0 mm 0 m/S 755 mmHg 73%
    04:00 +18°C° 0 mm 0 m/S 755 mmHg 73%
    05:00 +18°C° 0 mm 0 m/S 755 mmHg 71%
    06:00 +21°C° 0 mm 1 m/S 755 mmHg 68%
    07:00 +22°C° 0 mm 1 m/S 755 mmHg 66%
    08:00 +24°C° 0 mm 1 m/S 756 mmHg 61%
    09:00 +25°C° 0 mm 1 m/S 756 mmHg 56%
    10:00 +27°C° 0 mm 1 m/S 756 mmHg 52%
    11:00 +28°C° 0 mm 1 m/S 755 mmHg 49%
    12:00 +29°C° 0 mm 1 m/S 755 mmHg 47%
    13:00 +30°C° 0 mm 1 m/S 755 mmHg 44%
    14:00 +30°C° 0 mm 1 m/S 754 mmHg 44%
    15:00 +30°C° 0 mm 1 m/S 754 mmHg 43%
    16:00 +30°C° 0 mm 1 m/S 754 mmHg 42%
    17:00 +28°C° 0 mm 1 m/S 753 mmHg 47%
    18:00 +27°C° 0 mm 1 m/S 753 mmHg 52%
    19:00 +25°C° 0 mm 1 m/S 753 mmHg 57%
    20:00 +22°C° 0 mm 0 m/S 753 mmHg 58%
    21:00 +22°C° 0 mm 0 m/S 754 mmHg 60%
    22:00 +21°C° 0 mm 0 m/S 754 mmHg 61%
    23:00 +20°C° 0 mm 0 m/S 754 mmHg 63%

    20 August, Montag

    Zeit Temperatur Niederschläge Wind Luftdruck Luftfeuchtigkeit
    00:00 +22°C° 0 mm 1 m/S 753 mmHg 64%
    01:00 +22°C° 0 mm 1 m/S 753 mmHg 65%
    02:00 +21°C° 0 mm 1 m/S 753 mmHg 67%
    03:00 +21°C° 0 mm 1 m/S 753 mmHg 69%
    04:00 +21°C° 0 mm 1 m/S 753 mmHg 71%
    05:00 +22°C° 0 mm 1 m/S 753 mmHg 70%
    06:00 +23°C° 0 mm 1 m/S 753 mmHg 68%
    07:00 +24°C° 0 mm 1 m/S 753 mmHg 67%
    08:00 +25°C° 0 mm 1 m/S 753 mmHg 61%
    09:00 +27°C° 0 mm 1 m/S 753 mmHg 55%
    10:00 +29°C° 0 mm 1 m/S 753 mmHg 49%
    11:00 +30°C° 0 mm 1 m/S 753 mmHg 47%
    12:00 +31°C° 0 mm 2 m/S 752 mmHg 44%
    13:00 +31°C° 0 mm 2 m/S 752 mmHg 41%
    14:00 +31°C° 0 mm 2 m/S 752 mmHg 42%
    15:00 +31°C° 0 mm 2 m/S 751 mmHg 42%
    16:00 +31°C° 0 mm 2 m/S 751 mmHg 42%
    17:00 +30°C° 0 mm 2 m/S 751 mmHg 47%
    18:00 +28°C° 0 mm 2 m/S 751 mmHg 52%
    19:00 +27°C° 0 mm 2 m/S 751 mmHg 58%
    20:00 +26°C° 0 mm 2 m/S 752 mmHg 60%
    21:00 +25°C° 0 mm 2 m/S 752 mmHg 63%
    22:00 +24°C° 0 mm 1 m/S 752 mmHg 66%
    23:00 +23°C° 0 mm 2 m/S 752 mmHg 68%

    21 August, Dienstag

    Zeit Temperatur Niederschläge Wind Luftdruck Luftfeuchtigkeit
    00:00 +23°C° 0 mm 2 m/S 752 mmHg 69%
    01:00 +21°C° 0 mm 2 m/S 753 mmHg 71%
    02:00 +21°C° 0 mm 2 m/S 753 mmHg 75%
    03:00 +20°C° 0 mm 2 m/S 753 mmHg 78%
    04:00 +19°C° 0 mm 2 m/S 753 mmHg 81%
    05:00 +20°C° 0 mm 2 m/S 753 mmHg 81%
    06:00 +20°C° 0 mm 2 m/S 754 mmHg 81%
    07:00 +21°C° 0 mm 2 m/S 754 mmHg 81%
    08:00 +23°C° 0 mm 2 m/S 754 mmHg 76%
    09:00 +24°C° 0 mm 2 m/S 754 mmHg 71%
    10:00 +25°C° 0 mm 3 m/S 754 mmHg 66%
    11:00 +26°C° 0 mm 3 m/S 754 mmHg 63%
    12:00 +26°C° 0 mm 3 m/S 754 mmHg 61%
    13:00 +27°C° 0 mm 3 m/S 754 mmHg 58%
    14:00 +27°C° 0 mm 3 m/S 753 mmHg 57%
    15:00 +27°C° 0 mm 3 m/S 753 mmHg 56%
    16:00 +28°C° 0 mm 3 m/S 753 mmHg 55%
    17:00 +26°C° 0 mm 2 m/S 753 mmHg 60%
    18:00 +25°C° 0 mm 2 m/S 753 mmHg 64%
    19:00 +24°C° 0 mm 1 m/S 753 mmHg 69%
    20:00 +23°C° 0 mm 1 m/S 753 mmHg 72%
    21:00 +22°C° 0 mm 1 m/S 753 mmHg 74%
    22:00 +21°C° 0 mm 1 m/S 754 mmHg 77%
    23:00 +21°C° 0 mm 1 m/S 754 mmHg 78%

    22 August, Mittwoch

    Zeit Temperatur Niederschläge Wind Luftdruck Luftfeuchtigkeit
    00:00 +21°C° 0 mm 1 m/S 753 mmHg 80%
    01:00 +20°C° 0 mm 1 m/S 753 mmHg 82%
    02:00 +20°C° 0 mm 1 m/S 753 mmHg 83%
    03:00 +20°C° 0 mm 1 m/S 753 mmHg 84%
    04:00 +20°C° 0 mm 1 m/S 753 mmHg 86%
    05:00 +21°C° 0 mm 1 m/S 753 mmHg 82%
    06:00 +21°C° 0 mm 1 m/S 753 mmHg 79%
    07:00 +22°C° 0 mm 1 m/S 753 mmHg 75%
    08:00 +24°C° 0 mm 1 m/S 753 mmHg 68%
    09:00 +26°C° 0 mm 1 m/S 753 mmHg 61%
    10:00 +28°C° 0 mm 2 m/S 753 mmHg 53%
    11:00 +29°C° 0 mm 2 m/S 753 mmHg 50%
    12:00 +29°C° 0 mm 2 m/S 753 mmHg 46%
    13:00 +30°C° 0 mm 2 m/S 752 mmHg 43%
    14:00 +30°C° 0 mm 2 m/S 752 mmHg 43%
    15:00 +30°C° 0 mm 2 m/S 752 mmHg 44%
    16:00 +30°C° 0 mm 2 m/S 752 mmHg 44%
    17:00 +28°C° 0 mm 2 m/S 752 mmHg 50%
    18:00 +27°C° 0 mm 2 m/S 752 mmHg 56%
    19:00 +25°C° 0 mm 2 m/S 752 mmHg 62%
    20:00 +24°C° 0 mm 1 m/S 753 mmHg 66%
    21:00 +23°C° 0 mm 1 m/S 753 mmHg 70%
    22:00 +22°C° 0 mm 1 m/S 753 mmHg 74%
    23:00 +22°C° 0 mm 1 m/S 753 mmHg 76%
    Mehr zeigen